Miscellaneous Local Product
Issued by NWS North Platte, NE

Home | Current Version | Previous Version | Graphics & Text | Print | Product List | Glossary On
Versions: 1 2 3 4 5 6 7 8 9 10 11 12 13 14 15 16 17 18 19 20 21 22 23 24 25 26 27 28 29 30 31 32 33 34 35 36 37 38 39 40 41 42 43 44 45 46 47 48 49 50
000
AXUS43 KLBF 261110
MISLBF


WESTERN AND NORTH CENTRAL NEBRASKA HOURLY WEATHER ROUNDUP
NATIONAL WEATHER SERVICE NORTH PLATTE NE
600 AM CDT THU APR 26 2018

NOTE: "FAIR" INDICATES FEW OR NO CLOUDS BELOW 12,000 FEET WITH NO
SIGNIFICANT WEATHER AND/OR OBSTRUCTIONS TO VISIBILITY.

NOTE: STATIONS NOT REPORTING VARIABLES SUCH AS SKY/WEATHER OR
PRESSURE ARE PROVIDED BY RAWS AND APRS NETWORKS AND ARE NOT UNDER
NATIONAL WEATHER SERVICE QUALITY CONTROL.

...OBSERVATIONS IN AND NEAR THE EASTERN PANHANDLE OF NEBRASKA...

CITY           SKY/WX    TMP DP  RH WIND       PRES   REMARKS
PINE RIDGE     PTCLDY    47  33  58 N13       30.09R
GORDON         FAIR      45  33  63 NW16      30.06R
CHADRON        CLOUDY    48  32  53 N22G28    30.12R
ALLIANCE       PTCLDY    45  33  63 N18       30.07R
SIDNEY         PTCLDY    46  30  53 N18       30.06R
CRESCENT LAKE    N/A     48  31  52 N24G37      N/A
$$

...OBSERVATIONS IN NORTHERN NEBRASKA AND FAR SOUTHERN SOUTH DAKOTA...

CITY           SKY/WX    TMP DP  RH WIND       PRES   REMARKS
WINNER         FAIR      50  36  58 NW16      29.94R
VALENTINE      CLOUDY    52  35  52 N15G30    29.96R
AINSWORTH      MOCLDY    47  35  65 N17       29.92R
O`NEILL        MOCLDY    44  37  76 SW8       29.90S
THEDFORD       CLOUDY    47  36  64 NW14      29.95R
BROKEN BOW     MOCLDY    35  31  85 CALM      29.91F
ORD            PTCLDY    35  33  92 CALM      29.92S
ALBION         CLOUDY    40  36  86 S5        29.94F
VALENTINE NWR    N/A     48  33  55 NW10        N/A
HALSEY           N/A     42  31  64 SW5         N/A
BUTTE            N/A     42  33  71 W7          N/A
CHAMBERS         N/A     42  35  75 W3          N/A
EWING            N/A     41  36  81 SW5         N/A
$$

...OBSERVATIONS IN SOUTHWEST NEBRASKA AND FAR NORTHEAST COLORADO...

CITY           SKY/WX    TMP DP  RH WIND       PRES   REMARKS
WRAY           FAIR      46  32  57 N23       29.94R
HOLYOKE        FAIR      54  34  47 N28G36    29.96R
IMPERIAL       CLOUDY    41  34  76 W8        29.93R
OGALLALA       CLOUDY    53  32  45 N31       29.95R
NORTH PLATTE   CLOUDY    41  34  76 NW7       29.94R
MCCOOK         CLOUDY    37  34  89 SE6       29.91F WCI  32
LEXINGTON      PTCLDY    39  34  81 SE6       29.92F
STAPLETON        N/A     36  32  86 CALM        N/A
GOTHENBURG       N/A     44  30  59 SW3         N/A
CALLAWAY         N/A     41  34  77 S12         N/A
$$

...OBSERVATIONS IN CENTRAL LINCOLN COUNTY AREA...

CITY           SKY/WX    TMP DP  RH WIND       PRES   REMARKS
N.P. AIRPORT   CLOUDY    41  34  76 NW7       29.94R
N.P. DOWNTOWN    N/A     42  35  75 CALM        N/A
N.P. SOUTHEAST   N/A     44  34  68 CALM        N/A
N.P. HILLCREST   N/A     42  35  75 N3          N/A
$$

...OBSERVATIONS ACROSS THE ROCKIES AND WESTERN HIGH PLAINS...

CITY           SKY/WX    TMP DP  RH WIND       PRES   REMARKS
RAPID CITY     CLEAR     44  32  62 NW21      30.14R
SCOTTSBLUFF    CLOUDY    50  32  50 NW28G37   30.11R
CHEYENNE       CLOUDY    41  28  60 N22G38    30.19R
DENVER         MOCLDY    46  26  45 N24G32    30.14R
BERTHOUD PASS  CLOUDY    21  10  63 NW22      30.28R WCI   5
MONARCH PASS   CLEAR     28   3  34 W12       30.38R WCI  18
ASPEN          CLEAR     29  17  61 S7        30.20R WCI  22
STEAMBOAT      MOCLDY    33  22  66 N3        30.21R
LARAMIE        MOCLDY    34  27  75 N17G25    30.23R WCI  23
CASPER         CLOUDY    37  32  82 N3        30.27R
$$

...OBSERVATIONS ACROSS THE NORTHERN PLAINS...

CITY           SKY/WX    TMP DP  RH WIND       PRES   REMARKS
BISMARCK       CLEAR     40  31  70 NW9       30.07R WCI  34
FARGO          FAIR      42  32  67 N20G32    29.90R
PIERRE         CLEAR     44  34  67 N21       29.98R
SIOUX FALLS    CLOUDY    43  31  62 S13       29.85F
$$

...OBSERVATIONS ACROSS THE CENTRAL AND SOUTHERN PLAINS...

CITY           SKY/WX    TMP DP  RH WIND       PRES   REMARKS
OMAHA          CLOUDY    41  35  79 E3        29.97S
GRAND ISLAND   CLOUDY    41  37  86 SW12      29.96F
KANSAS CITY    CLOUDY    39  37  92 CALM      29.97F FOG
WICHITA        PTCLDY    35  35 100 CALM      30.01S FOG
DODGE CITY     CLEAR     33  30  88 S9        29.97F WCI  25
OKLAHOMA CITY  CLEAR     40  38  93 CALM      30.03S
DALLAS         CLEAR     47  44  90 W8        30.01S
AMARILLO       CLOUDY    39  31  72 S12       30.00F WCI  32
$$




USA.gov is the U.S. government's official web portal to all federal, state and local government web resources and services.